| time (UTC) | temp F | wind direction | speed MPH | gust MPH | rain 1hr in | rain 24hr in | rain mn in | humidity % | barometer mb |
| 20260505235138 | 61 | 315 | 0.0 | 0.0 | 0.00 | 0.00 | 0.00 | 93 | 1014.7 |
| 20260505234938 | 61 | 315 | 0.0 | 0.0 | 0.00 | 0.00 | 0.00 | 93 | 1014.6 |
| 20260505234737 | 61 | 315 | 0.0 | 0.0 | 0.00 | 0.00 | 0.00 | 93 | 1014.8 |
| 20260505234545 | 61 | 315 | 1.0 | 2.0 | 0.00 | 0.00 | 0.00 | 93 | 1014.8 |
| 20260505234338 | 61 | 315 | 1.0 | 2.0 | 0.00 | 0.00 | 0.00 | 93 | 1014.8 |
| 20260505234138 | 61 | 315 | 0.0 | 0.0 | 0.00 | 0.00 | 0.00 | 93 | 1014.9 |
| 20260505233939 | 61 | 292 | 1.0 | 2.0 | 0.00 | 0.00 | 0.00 | 93 | 1015.0 |
| 20260505233738 | 61 | 292 | 1.0 | 2.0 | 0.00 | 0.00 | 0.00 | 93 | 1014.8 |
| 20260505233540 | 61 | 292 | 2.0 | 2.0 | 0.00 | 0.00 | 0.00 | 93 | 1014.9 |
| 20260505233336 | 61 | 292 | 1.0 | 2.0 | 0.00 | 0.00 | 0.00 | 93 | 1014.9 |
| 20260505233138 | 61 | 292 | 1.0 | 2.0 | 0.00 | 0.00 | 0.00 | 93 | 1014.9 |
| 20260505232938 | 61 | 292 | 2.0 | 2.0 | 0.00 | 0.00 | 0.00 | 93 | 1015.1 |
| 20260505232738 | 61 | 292 | 2.0 | 4.0 | 0.00 | 0.00 | 0.00 | 93 | 1015.1 |
| 20260505232545 | 61 | 292 | 2.0 | 4.0 | 0.00 | 0.00 | 0.00 | 93 | 1014.9 |
| 20260505232337 | 61 | 292 | 2.0 | 2.0 | 0.00 | 0.00 | 0.00 | 93 | 1014.9 |
| 20260505232139 | 62 | 292 | 1.0 | 2.0 | 0.00 | 0.00 | 0.00 | 93 | 1015.0 |
| 20260505231937 | 62 | 315 | 2.0 | 2.0 | 0.00 | 0.00 | 0.00 | 93 | 1014.7 |
| 20260505231739 | 62 | 315 | 2.0 | 2.0 | 0.00 | 0.00 | 0.00 | 92 | 1014.7 |
| 20260505231338 | 61 | 338 | 0.0 | 0.0 | 0.00 | 0.00 | 0.00 | 92 | 1014.9 |
| 20260505231138 | 61 | 315 | 0.0 | 0.0 | 0.00 | 0.00 | 0.00 | 92 | 1014.7 |
| 20260505230940 | 61 | 315 | 0.0 | 0.0 | 0.00 | 0.00 | 0.00 | 92 | 1014.9 |
| 20260505230338 | 61 | 315 | 0.0 | 0.0 | 0.00 | 0.00 | 0.00 | 92 | 1015.1 |
| 20260505230137 | 61 | 315 | 0.0 | 0.0 | 0.00 | 0.00 | 0.00 | 92 | 1015.0 |
| 20260505225739 | 61 | 315 | 0.0 | 2.0 | 0.00 | 0.00 | 0.00 | 92 | 1014.9 |
| 20260505225543 | 61 | 338 | 0.0 | 0.0 | 0.00 | 0.00 | 0.00 | 92 | 1015.0 |
| 20260505225338 | 61 | 338 | 1.0 | 2.0 | 0.00 | 0.00 | 0.00 | 92 | 1015.0 |
| 20260505225138 | 61 | 0 | 0.0 | 2.0 | 0.00 | 0.00 | 0.00 | 92 | 1014.9 |
| 20260505224939 | 61 | 338 | 0.0 | 0.0 | 0.00 | 0.00 | 0.00 | 92 | 1015.1 |
| 20260505224738 | 62 | 338 | 1.0 | 2.0 | 0.00 | 0.00 | 0.00 | 92 | 1015.1 |
| 20260505224544 | 62 | 315 | 0.0 | 2.0 | 0.00 | 0.00 | 0.00 | 92 | 1015.0 |
| 20260505224338 | 61 | 315 | 1.0 | 2.0 | 0.00 | 0.00 | 0.00 | 92 | 1015.1 |
| 20260505224137 | 62 | 338 | 0.0 | 0.0 | 0.00 | 0.00 | 0.00 | 92 | 1015.1 |
| 20260505223939 | 62 | 315 | 0.0 | 2.0 | 0.00 | 0.00 | 0.00 | 92 | 1015.2 |
| 20260505223738 | 62 | 315 | 1.0 | 2.0 | 0.00 | 0.00 | 0.00 | 92 | 1015.1 |
| 20260505223540 | 62 | 315 | 1.0 | 2.0 | 0.00 | 0.00 | 0.00 | 92 | 1015.1 |
| 20260505223337 | 62 | 315 | 0.0 | 2.0 | 0.00 | 0.00 | 0.00 | 92 | 1015.1 |
| 20260505223137 | 62 | 292 | 1.0 | 2.0 | 0.00 | 0.00 | 0.00 | 92 | 1015.2 |
| 20260505222937 | 62 | 315 | 1.0 | 2.0 | 0.00 | 0.00 | 0.00 | 92 | 1015.3 |
| 20260505222737 | 62 | 315 | 1.0 | 2.0 | 0.00 | 0.00 | 0.00 | 92 | 1015.2 |
| 20260505222545 | 62 | 315 | 1.0 | 2.0 | 0.00 | 0.00 | 0.00 | 92 | 1015.1 |
| 20260505222338 | 62 | 315 | 1.0 | 2.0 | 0.00 | 0.00 | 0.00 | 92 | 1014.9 |
| 20260505221937 | 62 | 315 | 2.0 | 2.0 | 0.00 | 0.00 | 0.00 | 92 | 1015.0 |
| 20260505221738 | 62 | 315 | 0.0 | 2.0 | 0.00 | 0.00 | 0.00 | 92 | 1015.0 |
| 20260505221544 | 62 | 338 | 0.0 | 0.0 | 0.00 | 0.00 | 0.00 | 92 | 1015.1 |
| 20260505221338 | 62 | 0 | 0.0 | 0.0 | 0.00 | 0.00 | 0.00 | 92 | 1015.0 |
| 20260505221137 | 62 | 22 | 0.0 | 2.0 | 0.00 | 0.00 | 0.00 | 92 | 1015.0 |
| 20260505220940 | 62 | 338 | 0.0 | 2.0 | 0.00 | 0.00 | 0.00 | 92 | 1015.0 |
| 20260505220739 | 62 | 338 | 0.0 | 2.0 | 0.00 | 0.00 | 0.00 | 92 | 1015.2 |
| 20260505220542 | 62 | 0 | 1.0 | 2.0 | 0.00 | 0.00 | 0.00 | 92 | 1015.2 |
| 20260505220339 | 62 | 338 | 1.0 | 2.0 | 0.00 | 0.00 | 0.00 | 92 | 1015.0 |
| 20260505220146 | 62 | 338 | 0.0 | 0.0 | 0.00 | 0.00 | 0.00 | 92 | 1015.2 |
| 20260505215544 | 62 | 338 | 0.0 | 2.0 | 0.00 | 0.00 | 0.00 | 92 | 1015.2 |
| 20260505215339 | 62 | 338 | 0.0 | 2.0 | 0.00 | 0.00 | 0.00 | 92 | 1015.3 |
| 20260505215140 | 62 | 338 | 0.0 | 0.0 | 0.00 | 0.00 | 0.00 | 92 | 1015.4 |
| 20260505214939 | 62 | 0 | 0.0 | 2.0 | 0.00 | 0.00 | 0.00 | 92 | 1015.4 |
| 20260505214738 | 62 | 338 | 0.0 | 0.0 | 0.00 | 0.00 | 0.00 | 91 | 1015.2 |
| 20260505214338 | 62 | 0 | 0.0 | 0.0 | 0.00 | 0.00 | 0.00 | 91 | 1015.3 |
| 20260505213943 | 62 | 338 | 0.0 | 2.0 | 0.00 | 0.00 | 0.00 | 91 | 1015.3 |
| 20260505213738 | 62 | 338 | 0.0 | 2.0 | 0.00 | 0.00 | 0.00 | 91 | 1015.3 |
| 20260505213541 | 62 | 0 | 1.0 | 2.0 | 0.00 | 0.00 | 0.00 | 91 | 1015.3 |
| 20260505212937 | 62 | 0 | 0.0 | 0.0 | 0.00 | 0.00 | 0.00 | 91 | 1015.5 |
| 20260505212738 | 62 | 338 | 0.0 | 0.0 | 0.00 | 0.00 | 0.00 | 91 | 1015.3 |
| 20260505212546 | 62 | 338 | 0.0 | 2.0 | 0.00 | 0.00 | 0.00 | 91 | 1015.5 |
| 20260505212339 | 62 | 338 | 0.0 | 2.0 | 0.00 | 0.00 | 0.00 | 91 | 1015.5 |
| 20260505211938 | 62 | 338 | 1.0 | 2.0 | 0.00 | 0.00 | 0.00 | 91 | 1015.4 |
| 20260505211739 | 62 | 338 | 1.0 | 2.0 | 0.00 | 0.00 | 0.00 | 91 | 1015.5 |
| 20260505211546 | 62 | 338 | 0.0 | 0.0 | 0.00 | 0.00 | 0.00 | 91 | 1015.6 |
| 20260505211339 | 62 | 338 | 0.0 | 0.0 | 0.00 | 0.00 | 0.00 | 91 | 1015.5 |
| 20260505211139 | 62 | 338 | 0.0 | 2.0 | 0.00 | 0.00 | 0.00 | 91 | 1015.6 |
| 20260505210940 | 62 | 0 | 0.0 | 2.0 | 0.00 | 0.00 | 0.00 | 91 | 1015.4 |
| 20260505210737 | 62 | 22 | 1.0 | 2.0 | 0.00 | 0.00 | 0.00 | 91 | 1015.5 |
| 20260505210338 | 62 | 338 | 0.0 | 2.0 | 0.00 | 0.00 | 0.00 | 91 | 1015.7 |
| 20260505205938 | 62 | 315 | 0.0 | 0.0 | 0.00 | 0.00 | 0.00 | 91 | 1015.8 |
| 20260505205740 | 62 | 338 | 0.0 | 0.0 | 0.00 | 0.00 | 0.00 | 91 | 1015.5 |
| 20260505205544 | 62 | 338 | 0.0 | 0.0 | 0.00 | 0.00 | 0.00 | 91 | 1015.7 |
| 20260505205337 | 62 | 315 | 0.0 | 0.0 | 0.00 | 0.00 | 0.00 | 91 | 1015.9 |
| 20260505205137 | 62 | 315 | 0.0 | 0.0 | 0.00 | 0.00 | 0.00 | 91 | 1015.7 |
| 20260505204940 | 62 | 315 | 0.0 | 0.0 | 0.00 | 0.00 | 0.00 | 91 | 1016.0 |
| 20260505204738 | 62 | 315 | 0.0 | 0.0 | 0.00 | 0.00 | 0.00 | 91 | 1015.9 |
| 20260505204543 | 62 | 292 | 0.0 | 0.0 | 0.00 | 0.00 | 0.00 | 91 | 1015.7 |
| 20260505204339 | 62 | 292 | 0.0 | 0.0 | 0.00 | 0.00 | 0.00 | 91 | 1015.8 |
| 20260505204141 | 62 | 292 | 0.0 | 0.0 | 0.00 | 0.00 | 0.00 | 91 | 1015.9 |
| 20260505203954 | 62 | 292 | 0.0 | 2.0 | 0.00 | 0.00 | 0.00 | 91 | 1015.9 |
| 20260505203541 | 62 | 292 | 0.0 | 0.0 | 0.00 | 0.00 | 0.00 | 91 | 1015.9 |
| 20260505203337 | 62 | 292 | 0.0 | 2.0 | 0.00 | 0.00 | 0.00 | 91 | 1015.9 |
| 20260505202939 | 62 | 292 | 0.0 | 0.0 | 0.00 | 0.00 | 0.00 | 91 | 1016.0 |
| 20260505202738 | 62 | 292 | 1.0 | 2.0 | 0.00 | 0.00 | 0.00 | 91 | 1015.9 |
| 20260505202547 | 62 | 292 | 1.0 | 2.0 | 0.00 | 0.00 | 0.00 | 91 | 1016.0 |
| 20260505202339 | 62 | 292 | 1.0 | 2.0 | 0.00 | 0.00 | 0.00 | 90 | 1015.9 |
| 20260505201939 | 62 | 292 | 2.0 | 2.0 | 0.00 | 0.00 | 0.00 | 90 | 1015.9 |
| 20260505201739 | 62 | 292 | 2.0 | 2.0 | 0.00 | 0.00 | 0.00 | 90 | 1016.1 |
| 20260505201545 | 62 | 315 | 0.0 | 0.0 | 0.00 | 0.00 | 0.00 | 90 | 1016.0 |
| 20260505201139 | 62 | 315 | 0.0 | 0.0 | 0.00 | 0.00 | 0.00 | 90 | 1016.0 |
| 20260505200941 | 62 | 315 | 0.0 | 0.0 | 0.00 | 0.00 | 0.00 | 90 | 1015.9 |
| 20260505200740 | 62 | 315 | 0.0 | 0.0 | 0.00 | 0.00 | 0.00 | 90 | 1016.0 |
| 20260505200544 | 62 | 315 | 0.0 | 0.0 | 0.00 | 0.00 | 0.00 | 90 | 1015.9 |
| 20260505200139 | 62 | 315 | 0.0 | 0.0 | 0.00 | 0.00 | 0.00 | 90 | 1016.1 |
| 20260505195938 | 62 | 315 | 0.0 | 0.0 | 0.00 | 0.00 | 0.00 | 90 | 1015.9 |
| 20260505195738 | 62 | 315 | 0.0 | 0.0 | 0.00 | 0.00 | 0.00 | 90 | 1015.8 |
| 20260505195544 | 62 | 315 | 0.0 | 0.0 | 0.00 | 0.00 | 0.00 | 90 | 1016.0 |
| 20260505195339 | 62 | 315 | 0.0 | 0.0 | 0.00 | 0.00 | 0.00 | 90 | 1015.9 |
| 20260505194940 | 62 | 315 | 0.0 | 0.0 | 0.00 | 0.00 | 0.00 | 90 | 1016.0 |
| 20260505194738 | 62 | 338 | 0.0 | 0.0 | 0.00 | 0.00 | 0.00 | 90 | 1015.9 |
| 20260505193542 | 62 | 0 | 0.0 | 0.0 | 0.00 | 0.00 | 0.00 | 90 | 1015.6 |
| 20260505193338 | 62 | 0 | 0.0 | 0.0 | 0.00 | 0.00 | 0.00 | 90 | 1015.9 |
| 20260505193139 | 62 | 0 | 0.0 | 0.0 | 0.00 | 0.00 | 0.00 | 89 | 1015.9 |
| 20260505192939 | 62 | 0 | 0.0 | 0.0 | 0.00 | 0.00 | 0.00 | 89 | 1015.8 |
| 20260505192739 | 62 | 0 | 0.0 | 0.0 | 0.00 | 0.00 | 0.00 | 89 | 1015.8 |
| 20260505192544 | 62 | 0 | 0.0 | 0.0 | 0.00 | 0.00 | 0.00 | 89 | 1015.7 |
| 20260505192340 | 62 | 0 | 0.0 | 0.0 | 0.00 | 0.00 | 0.00 | 89 | 1015.5 |
| 20260505192138 | 62 | 0 | 0.0 | 0.0 | 0.00 | 0.00 | 0.00 | 89 | 1015.7 |
| 20260505191939 | 62 | 0 | 0.0 | 0.0 | 0.00 | 0.00 | 0.00 | 89 | 1015.8 |
| 20260505191739 | 63 | 0 | 0.0 | 2.0 | 0.00 | 0.00 | 0.00 | 89 | 1015.7 |
| 20260505191544 | 63 | 0 | 0.0 | 2.0 | 0.00 | 0.00 | 0.00 | 89 | 1015.6 |
| 20260505191339 | 63 | 0 | 0.0 | 0.0 | 0.00 | 0.00 | 0.00 | 89 | 1015.5 |
| 20260505191138 | 63 | 0 | 1.0 | 2.0 | 0.00 | 0.00 | 0.00 | 89 | 1015.5 |
| 20260505190940 | 63 | 22 | 0.0 | 2.0 | 0.00 | 0.00 | 0.00 | 89 | 1015.6 |
| 20260505190738 | 63 | 338 | 0.0 | 2.0 | 0.00 | 0.00 | 0.00 | 89 | 1015.6 |
| 20260505190543 | 63 | 0 | 0.0 | 2.0 | 0.00 | 0.00 | 0.00 | 89 | 1015.5 |
| 20260505190338 | 63 | 0 | 1.0 | 2.0 | 0.00 | 0.00 | 0.00 | 89 | 1015.6 |
| 20260505185939 | 63 | 22 | 0.0 | 0.0 | 0.00 | 0.00 | 0.00 | 89 | 1015.5 |
| 20260505185738 | 63 | 22 | 0.0 | 0.0 | 0.00 | 0.00 | 0.00 | 89 | 1015.5 |
| 20260505185546 | 63 | 22 | 0.0 | 2.0 | 0.00 | 0.00 | 0.00 | 89 | 1015.6 |
| 20260505185339 | 63 | 0 | 0.0 | 2.0 | 0.00 | 0.00 | 0.00 | 89 | 1015.5 |
| 20260505184939 | 63 | 0 | 0.0 | 0.0 | 0.00 | 0.00 | 0.00 | 89 | 1015.7 |
| 20260505184545 | 63 | 0 | 0.0 | 0.0 | 0.00 | 0.00 | 0.00 | 89 | 1015.5 |
| 20260505184338 | 63 | 0 | 0.0 | 0.0 | 0.00 | 0.00 | 0.00 | 89 | 1015.5 |
| 20260505184140 | 63 | 22 | 1.0 | 2.0 | 0.00 | 0.00 | 0.00 | 89 | 1015.6 |
| 20260505183940 | 63 | 22 | 1.0 | 2.0 | 0.00 | 0.00 | 0.00 | 89 | 1015.5 |
| 20260505183738 | 63 | 22 | 1.0 | 2.0 | 0.00 | 0.00 | 0.00 | 89 | 1015.4 |
| 20260505183542 | 63 | 22 | 1.0 | 2.0 | 0.00 | 0.00 | 0.00 | 89 | 1015.5 |
| 20260505183340 | 63 | 22 | 1.0 | 2.0 | 0.00 | 0.00 | 0.00 | 89 | 1015.4 |
| 20260505183138 | 63 | 22 | 1.0 | 2.0 | 0.00 | 0.00 | 0.00 | 89 | 1015.6 |
| 20260505182938 | 63 | 45 | 2.0 | 2.0 | 0.00 | 0.00 | 0.00 | 89 | 1015.4 |
| 20260505182738 | 63 | 22 | 1.0 | 2.0 | 0.00 | 0.00 | 0.00 | 89 | 1015.5 |
| 20260505182545 | 63 | 22 | 1.0 | 2.0 | 0.00 | 0.00 | 0.00 | 89 | 1015.5 |
| 20260505181939 | 63 | 45 | 1.0 | 2.0 | 0.00 | 0.00 | 0.00 | 89 | 1015.3 |
| 20260505181545 | 63 | 90 | 1.0 | 2.0 | 0.00 | 0.00 | 0.00 | 89 | 1015.4 |
| 20260505181339 | 63 | 22 | 0.0 | 0.0 | 0.00 | 0.00 | 0.00 | 89 | 1015.6 |
| 20260505181138 | 63 | 22 | 0.0 | 0.0 | 0.00 | 0.00 | 0.00 | 89 | 1015.4 |
| 20260505180940 | 63 | 22 | 1.0 | 2.0 | 0.00 | 0.00 | 0.00 | 89 | 1015.3 |
| 20260505180543 | 63 | 68 | 1.0 | 2.0 | 0.00 | 0.00 | 0.00 | 88 | 1015.5 |
| 20260505180337 | 63 | 68 | 1.0 | 2.0 | 0.00 | 0.00 | 0.00 | 88 | 1015.5 |
| 20260505175939 | 64 | 45 | 2.0 | 2.0 | 0.00 | 0.00 | 0.00 | 88 | 1015.3 |
| 20260505175738 | 64 | 45 | 2.0 | 2.0 | 0.00 | 0.00 | 0.00 | 88 | 1015.2 |
| 20260505175550 | 64 | 22 | 2.0 | 4.0 | 0.00 | 0.00 | 0.00 | 88 | 1015.2 |
| 20260505175340 | 64 | 90 | 2.0 | 4.0 | 0.00 | 0.00 | 0.00 | 88 | 1015.4 |
| 20260505175137 | 64 | 68 | 2.0 | 4.0 | 0.00 | 0.00 | 0.00 | 88 | 1015.4 |
| 20260505174939 | 64 | 68 | 1.0 | 2.0 | 0.00 | 0.00 | 0.00 | 88 | 1015.2 |
| 20260505174738 | 64 | 68 | 2.0 | 2.0 | 0.00 | 0.00 | 0.00 | 88 | 1015.3 |
| 20260505174544 | 64 | 90 | 2.0 | 2.0 | 0.00 | 0.00 | 0.00 | 88 | 1015.2 |
| 20260505174338 | 64 | 90 | 2.0 | 2.0 | 0.00 | 0.00 | 0.00 | 88 | 1015.2 |
| 20260505174138 | 64 | 68 | 1.0 | 2.0 | 0.00 | 0.00 | 0.00 | 88 | 1015.4 |
| 20260505173943 | 64 | 68 | 0.0 | 2.0 | 0.00 | 0.00 | 0.00 | 88 | 1015.4 |
| 20260505173739 | 64 | 90 | 2.0 | 2.0 | 0.00 | 0.00 | 0.00 | 87 | 1015.4 |
| 20260505173339 | 64 | 90 | 1.0 | 2.0 | 0.00 | 0.00 | 0.00 | 87 | 1015.2 |
| 20260505173140 | 64 | 45 | 1.0 | 2.0 | 0.00 | 0.00 | 0.00 | 87 | 1015.5 |
| 20260505172937 | 64 | 68 | 2.0 | 2.0 | 0.00 | 0.00 | 0.00 | 87 | 1015.3 |
| 20260505172741 | 64 | 68 | 2.0 | 4.0 | 0.00 | 0.00 | 0.00 | 87 | 1015.4 |
| 20260505172544 | 64 | 68 | 2.0 | 2.0 | 0.00 | 0.00 | 0.00 | 87 | 1015.5 |
| 20260505172339 | 64 | 90 | 2.0 | 2.0 | 0.00 | 0.00 | 0.00 | 86 | 1015.3 |
| 20260505171938 | 64 | 68 | 2.0 | 2.0 | 0.00 | 0.00 | 0.00 | 86 | 1015.5 |
| 20260505171757 | 64 | 45 | 1.0 | 2.0 | 0.00 | 0.00 | 0.00 | 86 | 1015.4 |
| 20260505171544 | 64 | 45 | 0.0 | 2.0 | 0.00 | 0.00 | 0.00 | 86 | 1015.5 |
| 20260505171339 | 64 | 90 | 1.0 | 2.0 | 0.00 | 0.00 | 0.00 | 86 | 1015.4 |
| 20260505170939 | 64 | 68 | 1.0 | 2.0 | 0.00 | 0.00 | 0.00 | 85 | 1015.4 |
| 20260505170543 | 64 | 90 | 2.0 | 2.0 | 0.00 | 0.00 | 0.00 | 85 | 1015.5 |
| 20260505170339 | 64 | 68 | 1.0 | 2.0 | 0.00 | 0.00 | 0.00 | 85 | 1015.4 |
| 20260505170137 | 64 | 68 | 1.0 | 2.0 | 0.00 | 0.00 | 0.00 | 85 | 1015.3 |
| 20260505165740 | 64 | 112 | 2.0 | 2.0 | 0.00 | 0.00 | 0.00 | 84 | 1015.4 |
| 20260505165544 | 64 | 45 | 2.0 | 2.0 | 0.00 | 0.00 | 0.00 | 84 | 1015.5 |
| 20260505165139 | 64 | 68 | 2.0 | 2.0 | 0.00 | 0.00 | 0.00 | 84 | 1015.3 |
| 20260505164939 | 64 | 45 | 2.0 | 4.0 | 0.00 | 0.00 | 0.00 | 84 | 1015.4 |
| 20260505164544 | 64 | 45 | 2.0 | 2.0 | 0.00 | 0.00 | 0.00 | 84 | 1015.3 |
| 20260505164338 | 64 | 68 | 2.0 | 2.0 | 0.00 | 0.00 | 0.00 | 84 | 1015.5 |
| 20260505164138 | 64 | 90 | 2.0 | 4.0 | 0.00 | 0.00 | 0.00 | 84 | 1015.4 |
| 20260505163938 | 64 | 90 | 2.0 | 4.0 | 0.00 | 0.00 | 0.00 | 84 | 1015.5 |
| 20260505163738 | 64 | 90 | 3.0 | 4.0 | 0.00 | 0.00 | 0.00 | 83 | 1015.2 |
| 20260505162938 | 64 | 90 | 2.0 | 4.0 | 0.00 | 0.00 | 0.00 | 83 | 1015.3 |
| 20260505162544 | 65 | 68 | 2.0 | 2.0 | 0.00 | 0.00 | 0.00 | 83 | 1015.4 |
| 20260505162338 | 65 | 90 | 2.0 | 4.0 | 0.00 | 0.00 | 0.00 | 83 | 1015.5 |
| 20260505162138 | 65 | 68 | 2.0 | 4.0 | 0.00 | 0.00 | 0.00 | 83 | 1015.5 |
| 20260505161939 | 65 | 22 | 2.0 | 2.0 | 0.00 | 0.00 | 0.00 | 82 | 1015.5 |
| 20260505161739 | 65 | 90 | 2.0 | 4.0 | 0.00 | 0.00 | 0.00 | 82 | 1015.5 |
| 20260505161544 | 65 | 112 | 2.0 | 4.0 | 0.00 | 0.00 | 0.00 | 81 | 1015.5 |
| 20260505161338 | 65 | 90 | 1.0 | 2.0 | 0.00 | 0.00 | 0.00 | 81 | 1015.6 |
| 20260505161136 | 65 | 112 | 2.0 | 2.0 | 0.00 | 0.00 | 0.00 | 81 | 1015.6 |
| 20260505160940 | 65 | 90 | 2.0 | 4.0 | 0.00 | 0.00 | 0.00 | 80 | 1015.7 |
| 20260505160739 | 65 | 68 | 2.0 | 2.0 | 0.00 | 0.00 | 0.00 | 80 | 1015.7 |
| 20260505160541 | 65 | 90 | 2.0 | 4.0 | 0.00 | 0.00 | 0.00 | 80 | 1015.7 |
| 20260505160337 | 65 | 68 | 2.0 | 2.0 | 0.00 | 0.00 | 0.00 | 80 | 1015.7 |
| 20260505160138 | 65 | 90 | 2.0 | 4.0 | 0.00 | 0.00 | 0.00 | 80 | 1015.8 |
| 20260505153336 | 66 | 68 | 2.0 | 2.0 | 0.00 | 0.00 | 0.00 | 77 | 1016.0 |
| 20260505153138 | 66 | 22 | 2.0 | 2.0 | 0.00 | 0.00 | 0.00 | 77 | 1015.9 |
| 20260505152938 | 66 | 112 | 2.0 | 2.0 | 0.00 | 0.00 | 0.00 | 77 | 1015.9 |
| 20260505152739 | 66 | 90 | 2.0 | 2.0 | 0.00 | 0.00 | 0.00 | 78 | 1016.0 |
| 20260505152545 | 67 | 90 | 2.0 | 4.0 | 0.00 | 0.00 | 0.00 | 78 | 1016.0 |
| 20260505152337 | 67 | 68 | 2.0 | 4.0 | 0.00 | 0.00 | 0.00 | 77 | 1015.9 |
| 20260505152138 | 67 | 68 | 2.0 | 4.0 | 0.00 | 0.00 | 0.00 | 77 | 1016.0 |
| 20260505151739 | 67 | 90 | 3.0 | 4.0 | 0.00 | 0.00 | 0.00 | 75 | 1015.8 |
| 20260505151546 | 67 | 90 | 3.0 | 4.0 | 0.00 | 0.00 | 0.00 | 74 | 1016.1 |
| 20260505151138 | 67 | 90 | 2.0 | 2.0 | 0.00 | 0.00 | 0.00 | 73 | 1015.9 |
| 20260505150737 | 68 | 112 | 1.0 | 2.0 | 0.00 | 0.00 | 0.00 | 73 | 1016.0 |
| 20260505150540 | 68 | 112 | 2.0 | 4.0 | 0.00 | 0.00 | 0.00 | 73 | 1016.1 |
| 20260505150337 | 68 | 90 | 3.0 | 4.0 | 0.00 | 0.00 | 0.00 | 72 | 1016.1 |
| 20260505150137 | 68 | 90 | 2.0 | 4.0 | 0.00 | 0.00 | 0.00 | 70 | 1015.9 |
| 20260505140542 | 67 | 112 | 1.0 | 2.0 | 0.00 | 0.00 | 0.00 | 71 | 1016.1 |
| 20260505140137 | 66 | 90 | 3.0 | 4.0 | 0.00 | 0.00 | 0.00 | 74 | 1015.9 |
| 20260505130137 | 66 | 68 | 4.0 | 4.0 | 0.00 | 0.00 | 0.00 | 80 | 1016.2 |
| 20260505124937 | 66 | 112 | 2.0 | 4.0 | 0.00 | 0.00 | 0.00 | 79 | 1016.3 |
| 20260505124545 | 66 | 90 | 3.0 | 4.0 | 0.00 | 0.00 | 0.00 | 79 | 1016.5 |
| 20260505124337 | 67 | 68 | 3.0 | 4.0 | 0.00 | 0.00 | 0.00 | 79 | 1016.4 |
| 20260505123938 | 67 | 112 | 3.0 | 4.0 | 0.00 | 0.00 | 0.00 | 79 | 1016.6 |
| 20260505123740 | 67 | 68 | 3.0 | 6.0 | 0.00 | 0.00 | 0.00 | 78 | 1016.3 |
| 20260505123542 | 67 | 68 | 2.0 | 4.0 | 0.00 | 0.00 | 0.00 | 78 | 1016.4 |
| 20260505123338 | 67 | 90 | 3.0 | 4.0 | 0.00 | 0.00 | 0.00 | 78 | 1016.4 |
| 20260505122938 | 67 | 135 | 4.0 | 6.0 | 0.00 | 0.00 | 0.00 | 78 | 1016.4 |
| 20260505122739 | 67 | 90 | 3.0 | 4.0 | 0.00 | 0.00 | 0.00 | 78 | 1016.6 |
| 20260505122545 | 67 | 68 | 4.0 | 4.0 | 0.00 | 0.00 | 0.00 | 78 | 1016.6 |
| 20260505122138 | 67 | 112 | 3.0 | 4.0 | 0.00 | 0.00 | 0.00 | 78 | 1016.5 |
| 20260505121938 | 67 | 90 | 4.0 | 6.0 | 0.00 | 0.00 | 0.00 | 79 | 1016.6 |
| 20260505121543 | 67 | 68 | 3.0 | 4.0 | 0.00 | 0.00 | 0.00 | 78 | 1016.7 |
| 20260505121338 | 67 | 68 | 2.0 | 4.0 | 0.00 | 0.00 | 0.00 | 79 | 1016.6 |
| 20260505121138 | 67 | 90 | 3.0 | 4.0 | 0.00 | 0.00 | 0.00 | 79 | 1016.6 |
| 20260505120541 | 67 | 90 | 4.0 | 7.0 | 0.00 | 0.00 | 0.00 | 78 | 1016.7 |
| 20260505120338 | 67 | 90 | 4.0 | 7.0 | 0.00 | 0.00 | 0.00 | 78 | 1016.7 |
| 20260505120137 | 67 | 90 | 4.0 | 7.0 | 0.00 | 0.00 | 0.00 | 78 | 1016.7 |
| 20260505115739 | 67 | 112 | 2.0 | 4.0 | 0.00 | 0.00 | 0.00 | 78 | 1016.6 |
| 20260505115545 | 67 | 90 | 3.0 | 4.0 | 0.00 | 0.00 | 0.00 | 77 | 1016.7 |
| 20260505115337 | 67 | 135 | 3.0 | 4.0 | 0.00 | 0.00 | 0.00 | 77 | 1016.7 |
| 20260505114937 | 67 | 112 | 4.0 | 4.0 | 0.00 | 0.00 | 0.00 | 77 | 1016.7 |
| 20260505114739 | 67 | 90 | 3.0 | 4.0 | 0.00 | 0.00 | 0.00 | 77 | 1016.9 |
| 20260505114543 | 67 | 158 | 2.0 | 2.0 | 0.00 | 0.00 | 0.00 | 77 | 1016.7 |
| 20260505114338 | 67 | 68 | 3.0 | 4.0 | 0.00 | 0.00 | 0.00 | 77 | 1016.7 |
| 20260505114137 | 67 | 135 | 3.0 | 4.0 | 0.00 | 0.00 | 0.00 | 76 | 1016.6 |
| 20260505113939 | 68 | 158 | 3.0 | 4.0 | 0.00 | 0.00 | 0.00 | 75 | 1016.6 |
| 20260505113738 | 68 | 90 | 2.0 | 4.0 | 0.00 | 0.00 | 0.00 | 75 | 1016.7 |
| 20260505113540 | 68 | 112 | 2.0 | 4.0 | 0.00 | 0.00 | 0.00 | 76 | 1016.5 |
| 20260505113338 | 68 | 68 | 3.0 | 4.0 | 0.00 | 0.00 | 0.00 | 75 | 1016.6 |
| 20260505113138 | 68 | 90 | 2.0 | 2.0 | 0.00 | 0.00 | 0.00 | 75 | 1016.6 |
| 20260505112938 | 68 | 90 | 2.0 | 4.0 | 0.00 | 0.00 | 0.00 | 76 | 1016.5 |
| 20260505112545 | 68 | 68 | 1.0 | 2.0 | 0.00 | 0.00 | 0.00 | 76 | 1016.3 |
| 20260505112339 | 67 | 112 | 2.0 | 4.0 | 0.00 | 0.00 | 0.00 | 77 | 1016.5 |
| 20260505112138 | 67 | 135 | 3.0 | 4.0 | 0.00 | 0.00 | 0.00 | 77 | 1016.4 |
| 20260505111938 | 67 | 112 | 3.0 | 4.0 | 0.00 | 0.00 | 0.00 | 78 | 1016.5 |
| 20260505111739 | 67 | 90 | 4.0 | 6.0 | 0.00 | 0.00 | 0.00 | 77 | 1016.5 |
| 20260505111338 | 67 | 180 | 2.0 | 4.0 | 0.00 | 0.00 | 0.00 | 77 | 1016.6 |
| 20260505110938 | 67 | 112 | 4.0 | 7.0 | 0.00 | 0.00 | 0.00 | 78 | 1016.6 |
| 20260505110738 | 67 | 135 | 4.0 | 6.0 | 0.00 | 0.00 | 0.00 | 78 | 1016.5 |
| 20260505110541 | 67 | 112 | 3.0 | 4.0 | 0.00 | 0.00 | 0.00 | 78 | 1016.6 |
| 20260505110137 | 67 | 135 | 2.0 | 4.0 | 0.00 | 0.00 | 0.00 | 77 | 1016.8 |
| 20260505102137 | 70 | 68 | 3.0 | 6.0 | 0.00 | 0.00 | 0.00 | 72 | 1016.6 |
| 20260505101937 | 69 | 22 | 0.0 | 2.0 | 0.00 | 0.00 | 0.00 | 72 | 1016.7 |
| 20260505101737 | 69 | 90 | 5.0 | 7.0 | 0.00 | 0.00 | 0.00 | 72 | 1016.8 |
| 20260505101544 | 69 | 90 | 4.0 | 7.0 | 0.00 | 0.00 | 0.00 | 73 | 1016.5 |
| 20260505101336 | 69 | 68 | 4.0 | 7.0 | 0.00 | 0.00 | 0.00 | 74 | 1016.6 |
| 20260505101137 | 70 | 112 | 5.0 | 8.0 | 0.00 | 0.00 | 0.00 | 71 | 1016.6 |
| 20260505100938 | 69 | 90 | 4.0 | 6.0 | 0.00 | 0.00 | 0.00 | 71 | 1016.6 |
| 20260505100737 | 68 | 90 | 3.0 | 4.0 | 0.00 | 0.00 | 0.00 | 73 | 1016.5 |
| 20260505100540 | 69 | 112 | 3.0 | 6.0 | 0.00 | 0.00 | 0.00 | 74 | 1016.6 |
| 20260505100338 | 69 | 90 | 4.0 | 8.0 | 0.00 | 0.00 | 0.00 | 72 | 1016.6 |
| 20260505100138 | 69 | 68 | 4.0 | 7.0 | 0.00 | 0.00 | 0.00 | 73 | 1016.7 |
| 20260505095938 | 69 | 90 | 4.0 | 6.0 | 0.00 | 0.00 | 0.00 | 73 | 1016.7 |
| 20260505095543 | 69 | 90 | 4.0 | 7.0 | 0.00 | 0.00 | 0.00 | 72 | 1016.8 |
| 20260505095340 | 69 | 112 | 3.0 | 6.0 | 0.00 | 0.00 | 0.00 | 70 | 1016.8 |
| 20260505095137 | 70 | 112 | 4.0 | 8.0 | 0.00 | 0.00 | 0.00 | 70 | 1017.0 |
| 20260505094938 | 69 | 90 | 4.0 | 6.0 | 0.00 | 0.00 | 0.00 | 71 | 1016.9 |
| 20260505094543 | 69 | 135 | 2.0 | 4.0 | 0.00 | 0.00 | 0.00 | 72 | 1017.0 |
| 20260505094338 | 69 | 135 | 5.0 | 7.0 | 0.00 | 0.00 | 0.00 | 71 | 1016.7 |
| 20260505094137 | 69 | 68 | 5.0 | 8.0 | 0.00 | 0.00 | 0.00 | 71 | 1016.7 |
| 20260505093940 | 70 | 112 | 3.0 | 6.0 | 0.00 | 0.00 | 0.00 | 70 | 1016.9 |
| 20260505093739 | 70 | 68 | 4.0 | 6.0 | 0.00 | 0.00 | 0.00 | 69 | 1016.6 |
| 20260505093541 | 71 | 90 | 3.0 | 8.0 | 0.00 | 0.00 | 0.00 | 67 | 1016.8 |
| 20260505093337 | 71 | 90 | 4.0 | 8.0 | 0.00 | 0.00 | 0.00 | 67 | 1016.8 |
| 20260505093139 | 70 | 112 | 4.0 | 6.0 | 0.00 | 0.00 | 0.00 | 67 | 1016.8 |
| 20260505092739 | 71 | 68 | 5.0 | 8.0 | 0.00 | 0.00 | 0.00 | 68 | 1016.5 |
| 20260505092544 | 70 | 68 | 4.0 | 7.0 | 0.00 | 0.00 | 0.00 | 68 | 1016.7 |
| 20260505092338 | 69 | 90 | 2.0 | 4.0 | 0.00 | 0.00 | 0.00 | 68 | 1016.7 |
| 20260505092137 | 69 | 112 | 2.0 | 4.0 | 0.00 | 0.00 | 0.00 | 69 | 1016.7 |
| 20260505091938 | 69 | 112 | 6.0 | 9.0 | 0.00 | 0.00 | 0.00 | 69 | 1016.7 |
| 20260505091740 | 69 | 22 | 4.0 | 6.0 | 0.00 | 0.00 | 0.00 | 67 | 1016.8 |
| 20260505091544 | 70 | 112 | 4.0 | 6.0 | 0.00 | 0.00 | 0.00 | 68 | 1016.8 |
| 20260505091338 | 70 | 112 | 4.0 | 6.0 | 0.00 | 0.00 | 0.00 | 69 | 1016.8 |
| 20260505091137 | 70 | 135 | 4.0 | 7.0 | 0.00 | 0.00 | 0.00 | 68 | 1017.0 |
| 20260505090738 | 69 | 90 | 7.0 | 11.0 | 0.00 | 0.00 | 0.00 | 68 | 1016.8 |
| 20260505090540 | 70 | 90 | 3.0 | 6.0 | 0.00 | 0.00 | 0.00 | 67 | 1016.8 |
| 20260505090337 | 70 | 68 | 4.0 | 6.0 | 0.00 | 0.00 | 0.00 | 67 | 1016.9 |
| 20260505090138 | 70 | 112 | 2.0 | 4.0 | 0.00 | 0.00 | 0.00 | 67 | 1016.7 |
| 20260505085544 | 70 | 22 | 2.0 | 4.0 | 0.00 | 0.00 | 0.00 | 66 | 1016.7 |
| 20260505085339 | 70 | 135 | 3.0 | 4.0 | 0.00 | 0.00 | 0.00 | 65 | 1016.8 |
| 20260505085137 | 70 | 90 | 4.0 | 6.0 | 0.00 | 0.00 | 0.00 | 68 | 1016.8 |
| 20260505084938 | 69 | 158 | 2.0 | 4.0 | 0.00 | 0.00 | 0.00 | 68 | 1016.8 |
| 20260505084738 | 69 | 45 | 4.0 | 7.0 | 0.00 | 0.00 | 0.00 | 68 | 1016.7 |
| 20260505084545 | 69 | 45 | 4.0 | 6.0 | 0.00 | 0.00 | 0.00 | 68 | 1016.8 |
| 20260505084338 | 69 | 90 | 3.0 | 4.0 | 0.00 | 0.00 | 0.00 | 68 | 1016.9 |
| 20260505084137 | 69 | 90 | 4.0 | 7.0 | 0.00 | 0.00 | 0.00 | 69 | 1016.8 |
| 20260505083939 | 70 | 68 | 3.0 | 4.0 | 0.00 | 0.00 | 0.00 | 68 | 1016.8 |
| 20260505083739 | 70 | 22 | 3.0 | 4.0 | 0.00 | 0.00 | 0.00 | 67 | 1016.8 |
| 20260505083541 | 70 | 112 | 5.0 | 9.0 | 0.00 | 0.00 | 0.00 | 67 | 1016.8 |
| 20260505083337 | 70 | 68 | 4.0 | 6.0 | 0.00 | 0.00 | 0.00 | 68 | 1016.9 |
| 20260505083137 | 70 | 68 | 6.0 | 8.0 | 0.00 | 0.00 | 0.00 | 68 | 1016.9 |
| 20260505082939 | 70 | 90 | 3.0 | 4.0 | 0.00 | 0.00 | 0.00 | 67 | 1016.8 |
| 20260505082739 | 70 | 45 | 3.0 | 4.0 | 0.00 | 0.00 | 0.00 | 67 | 1016.7 |
| 20260505082338 | 69 | 112 | 3.0 | 4.0 | 0.00 | 0.00 | 0.00 | 68 | 1016.8 |
| 20260505082138 | 69 | 112 | 2.0 | 2.0 | 0.00 | 0.00 | 0.00 | 68 | 1016.9 |
| 20260505081543 | 69 | 68 | 3.0 | 7.0 | 0.00 | 0.00 | 0.00 | 69 | 1016.7 |
| 20260505080938 | 70 | 112 | 4.0 | 7.0 | 0.00 | 0.00 | 0.00 | 70 | 1016.6 |
| 20260505080739 | 70 | 90 | 3.0 | 6.0 | 0.00 | 0.00 | 0.00 | 71 | 1016.7 |
| 20260505080336 | 70 | 90 | 4.0 | 7.0 | 0.00 | 0.00 | 0.00 | 70 | 1016.7 |
| 20260505080137 | 70 | 90 | 4.0 | 6.0 | 0.00 | 0.00 | 0.00 | 71 | 1016.8 |
| 20260505075937 | 70 | 90 | 2.0 | 7.0 | 0.00 | 0.00 | 0.00 | 70 | 1016.7 |
| 20260505075739 | 70 | 112 | 3.0 | 4.0 | 0.00 | 0.00 | 0.00 | 70 | 1016.7 |
| 20260505075337 | 69 | 90 | 2.0 | 4.0 | 0.00 | 0.00 | 0.00 | 69 | 1017.0 |
| 20260505075137 | 69 | 68 | 2.0 | 2.0 | 0.00 | 0.00 | 0.00 | 69 | 1016.8 |
| 20260505074938 | 70 | 68 | 4.0 | 6.0 | 0.00 | 0.00 | 0.00 | 69 | 1017.0 |
| 20260505074738 | 71 | 90 | 2.0 | 4.0 | 0.00 | 0.00 | 0.00 | 67 | 1016.9 |
| 20260505074543 | 71 | 112 | 3.0 | 4.0 | 0.00 | 0.00 | 0.00 | 66 | 1017.0 |
| 20260505074338 | 70 | 90 | 1.0 | 2.0 | 0.00 | 0.00 | 0.00 | 68 | 1016.9 |
| 20260505073938 | 68 | 68 | 2.0 | 2.0 | 0.00 | 0.00 | 0.00 | 71 | 1017.0 |
| 20260505073738 | 68 | 45 | 3.0 | 4.0 | 0.00 | 0.00 | 0.00 | 71 | 1017.0 |
| 20260505073540 | 68 | 68 | 2.0 | 2.0 | 0.00 | 0.00 | 0.00 | 72 | 1017.0 |
| 20260505073337 | 68 | 112 | 2.0 | 4.0 | 0.00 | 0.00 | 0.00 | 71 | 1016.9 |
| 20260505073137 | 68 | 68 | 3.0 | 4.0 | 0.00 | 0.00 | 0.00 | 72 | 1017.0 |
| 20260505072938 | 68 | 68 | 2.0 | 4.0 | 0.00 | 0.00 | 0.00 | 73 | 1017.0 |
| 20260505072738 | 68 | 22 | 2.0 | 4.0 | 0.00 | 0.00 | 0.00 | 73 | 1017.1 |
| 20260505072544 | 68 | 0 | 3.0 | 4.0 | 0.00 | 0.00 | 0.00 | 73 | 1017.0 |
| 20260505072338 | 67 | 22 | 2.0 | 6.0 | 0.00 | 0.00 | 0.00 | 73 | 1017.0 |
| 20260505072137 | 67 | 338 | 3.0 | 4.0 | 0.00 | 0.00 | 0.00 | 74 | 1017.1 |
| 20260505071938 | 67 | 90 | 2.0 | 4.0 | 0.00 | 0.00 | 0.00 | 74 | 1017.1 |
| 20260505071737 | 67 | 22 | 4.0 | 4.0 | 0.00 | 0.00 | 0.00 | 73 | 1017.1 |
| 20260505071543 | 67 | 45 | 3.0 | 6.0 | 0.00 | 0.00 | 0.00 | 74 | 1017.0 |
| 20260505071337 | 67 | 0 | 2.0 | 4.0 | 0.00 | 0.00 | 0.00 | 75 | 1017.1 |
| 20260505071137 | 66 | 338 | 1.0 | 4.0 | 0.00 | 0.00 | 0.00 | 76 | 1017.2 |
| 20260505070541 | 66 | 68 | 2.0 | 4.0 | 0.00 | 0.00 | 0.00 | 77 | 1017.1 |
| 20260505070338 | 66 | 68 | 2.0 | 2.0 | 0.00 | 0.00 | 0.00 | 78 | 1017.3 |
| 20260505070137 | 66 | 22 | 2.0 | 2.0 | 0.00 | 0.00 | 0.00 | 78 | 1017.3 |
| 20260505065543 | 65 | 22 | 2.0 | 4.0 | 0.00 | 0.00 | 0.00 | 78 | 1017.3 |
| 20260505065336 | 65 | 292 | 1.0 | 2.0 | 0.00 | 0.00 | 0.00 | 79 | 1017.1 |
| 20260505064737 | 65 | 22 | 3.0 | 4.0 | 0.00 | 0.00 | 0.00 | 79 | 1017.2 |
| 20260505064543 | 65 | 90 | 2.0 | 4.0 | 0.00 | 0.00 | 0.00 | 79 | 1017.0 |
| 20260505064338 | 65 | 0 | 2.0 | 4.0 | 0.00 | 0.00 | 0.00 | 79 | 1017.0 |
| 20260505064137 | 65 | 68 | 4.0 | 6.0 | 0.00 | 0.00 | 0.00 | 78 | 1017.1 |
| 20260505063939 | 65 | 45 | 3.0 | 4.0 | 0.00 | 0.00 | 0.00 | 79 | 1017.1 |
| 20260505063736 | 65 | 45 | 2.0 | 4.0 | 0.00 | 0.00 | 0.00 | 78 | 1017.2 |
| 20260505063541 | 66 | 22 | 4.0 | 4.0 | 0.00 | 0.00 | 0.00 | 78 | 1017.2 |
| 20260505063336 | 66 | 68 | 4.0 | 6.0 | 0.00 | 0.00 | 0.00 | 77 | 1017.1 |
| 20260505063138 | 66 | 45 | 2.0 | 4.0 | 0.00 | 0.00 | 0.00 | 78 | 1017.3 |
| 20260505062938 | 66 | 90 | 2.0 | 4.0 | 0.00 | 0.00 | 0.00 | 78 | 1017.2 |
| 20260505062737 | 66 | 22 | 3.0 | 4.0 | 0.00 | 0.00 | 0.00 | 79 | 1017.3 |
| 20260505062337 | 65 | 292 | 1.0 | 2.0 | 0.00 | 0.00 | 0.00 | 82 | 1017.1 |
| 20260505062138 | 64 | 315 | 2.0 | 2.0 | 0.00 | 0.00 | 0.00 | 82 | 1017.3 |
| 20260505061938 | 64 | 68 | 2.0 | 4.0 | 0.00 | 0.00 | 0.00 | 83 | 1017.4 |
| 20260505061737 | 64 | 315 | 0.0 | 0.0 | 0.00 | 0.00 | 0.00 | 83 | 1017.5 |
| 20260505061543 | 64 | 22 | 1.0 | 2.0 | 0.00 | 0.00 | 0.00 | 83 | 1017.5 |
| 20260505061337 | 64 | 292 | 1.0 | 2.0 | 0.00 | 0.00 | 0.00 | 83 | 1017.4 |
| 20260505061138 | 64 | 315 | 2.0 | 2.0 | 0.00 | 0.00 | 0.00 | 83 | 1017.5 |
| 20260505060938 | 64 | 315 | 2.0 | 4.0 | 0.00 | 0.00 | 0.00 | 83 | 1017.4 |
| 20260505060736 | 63 | 315 | 1.0 | 2.0 | 0.00 | 0.00 | 0.00 | 84 | 1017.4 |
| 20260505060541 | 63 | 112 | 0.0 | 2.0 | 0.00 | 0.00 | 0.00 | 84 | 1017.5 |
| 20260505060338 | 63 | 112 | 0.0 | 2.0 | 0.00 | 0.00 | 0.00 | 84 | 1017.3 |
| 20260505060136 | 63 | 112 | 0.0 | 2.0 | 0.00 | 0.00 | 0.00 | 84 | 1017.3 |
| 20260505055753 | 63 | 0 | 1.0 | 2.0 | 0.00 | 0.00 | 0.00 | 85 | 1017.2 |
| 20260505055543 | 63 | 315 | 0.0 | 2.0 | 0.00 | 0.00 | 0.00 | 86 | 1017.2 |
| 20260505055137 | 63 | 292 | 1.0 | 2.0 | 0.00 | 0.00 | 0.00 | 86 | 1017.2 |
| 20260505054738 | 62 | 315 | 1.0 | 2.0 | 0.00 | 0.00 | 0.00 | 86 | 1017.1 |
| 20260505054545 | 62 | 292 | 2.0 | 2.0 | 0.00 | 0.00 | 0.00 | 86 | 1017.0 |
| 20260505054338 | 62 | 292 | 1.0 | 2.0 | 0.00 | 0.00 | 0.00 | 86 | 1017.2 |
| 20260505054137 | 62 | 292 | 0.0 | 2.0 | 0.00 | 0.00 | 0.00 | 87 | 1017.1 |
| 20260505053937 | 62 | 315 | 0.0 | 0.0 | 0.00 | 0.00 | 0.00 | 87 | 1017.1 |
| 20260505053738 | 62 | 315 | 0.0 | 2.0 | 0.00 | 0.00 | 0.00 | 87 | 1017.2 |
| 20260505053540 | 62 | 338 | 0.0 | 0.0 | 0.00 | 0.00 | 0.00 | 87 | 1017.0 |
| 20260505053137 | 62 | 292 | 2.0 | 4.0 | 0.00 | 0.00 | 0.00 | 87 | 1017.1 |
| 20260505052937 | 61 | 292 | 0.0 | 0.0 | 0.00 | 0.00 | 0.00 | 87 | 1017.1 |
| 20260505052737 | 61 | 292 | 0.0 | 2.0 | 0.00 | 0.00 | 0.00 | 87 | 1017.3 |
| 20260505052544 | 61 | 292 | 0.0 | 0.0 | 0.00 | 0.00 | 0.00 | 87 | 1016.9 |
| 20260505052338 | 61 | 292 | 1.0 | 2.0 | 0.00 | 0.00 | 0.00 | 87 | 1017.1 |
| 20260505052138 | 61 | 292 | 0.0 | 2.0 | 0.00 | 0.00 | 0.00 | 87 | 1016.9 |
| 20260505051938 | 61 | 292 | 0.0 | 2.0 | 0.00 | 0.00 | 0.00 | 87 | 1016.9 |
| 20260505051737 | 61 | 292 | 1.0 | 2.0 | 0.00 | 0.00 | 0.00 | 87 | 1017.0 |
| 20260505051543 | 61 | 315 | 0.0 | 2.0 | 0.00 | 0.00 | 0.00 | 88 | 1017.0 |
| 20260505051337 | 61 | 338 | 0.0 | 0.0 | 0.00 | 0.00 | 0.00 | 88 | 1016.9 |
| 20260505051138 | 61 | 315 | 0.0 | 0.0 | 0.00 | 0.00 | 0.00 | 88 | 1016.8 |
| 20260505050938 | 61 | 315 | 0.0 | 0.0 | 0.00 | 0.00 | 0.00 | 88 | 1016.9 |
| 20260505050540 | 61 | 292 | 0.0 | 2.0 | 0.00 | 0.00 | 0.00 | 88 | 1017.0 |
| 20260505050339 | 61 | 315 | 1.0 | 2.0 | 0.00 | 0.00 | 0.00 | 88 | 1017.0 |
| 20260505050138 | 61 | 338 | 0.0 | 0.0 | 0.00 | 0.00 | 0.00 | 88 | 1016.8 |
| 20260505041744 | 56 | 292 | 0.0 | 0.0 | 0.00 | 0.00 | 0.00 | 88 | 1016.7 |
| 20260505041544 | 56 | 292 | 0.0 | 0.0 | 0.00 | 0.00 | 0.00 | 88 | 1016.8 |
| 20260505041338 | 55 | 292 | 0.0 | 0.0 | 0.00 | 0.00 | 0.00 | 88 | 1016.6 |
| 20260505041138 | 55 | 292 | 0.0 | 2.0 | 0.00 | 0.00 | 0.00 | 88 | 1016.6 |
| 20260505040939 | 55 | 292 | 2.0 | 2.0 | 0.00 | 0.00 | 0.00 | 88 | 1016.8 |
| 20260505040737 | 55 | 292 | 1.0 | 2.0 | 0.00 | 0.00 | 0.00 | 88 | 1016.6 |
| 20260505040542 | 55 | 292 | 1.0 | 2.0 | 0.00 | 0.00 | 0.00 | 88 | 1016.7 |
| 20260505040337 | 54 | 292 | 0.0 | 0.0 | 0.00 | 0.00 | 0.00 | 88 | 1016.8 |
| 20260505040138 | 54 | 270 | 0.0 | 0.0 | 0.00 | 0.00 | 0.00 | 88 | 1016.8 |
| 20260505035938 | 54 | 270 | 0.0 | 0.0 | 0.00 | 0.00 | 0.00 | 88 | 1016.7 |
| 20260505035737 | 54 | 248 | 0.0 | 0.0 | 0.00 | 0.00 | 0.00 | 88 | 1016.6 |
| 20260505035544 | 54 | 270 | 0.0 | 0.0 | 0.00 | 0.00 | 0.00 | 88 | 1016.6 |
| 20260505035337 | 54 | 270 | 0.0 | 0.0 | 0.00 | 0.00 | 0.00 | 88 | 1016.7 |
| 20260505035138 | 54 | 270 | 0.0 | 0.0 | 0.00 | 0.00 | 0.00 | 88 | 1016.5 |
| 20260505034938 | 54 | 270 | 0.0 | 0.0 | 0.00 | 0.00 | 0.00 | 88 | 1016.6 |
| 20260505034738 | 53 | 270 | 0.0 | 0.0 | 0.00 | 0.00 | 0.00 | 88 | 1016.5 |
| 20260505034543 | 53 | 292 | 0.0 | 0.0 | 0.00 | 0.00 | 0.00 | 88 | 1016.6 |
| 20260505034338 | 53 | 292 | 0.0 | 0.0 | 0.00 | 0.00 | 0.00 | 88 | 1016.7 |
| 20260505034139 | 53 | 292 | 0.0 | 0.0 | 0.00 | 0.00 | 0.00 | 87 | 1016.8 |
| 20260505033940 | 53 | 270 | 1.0 | 2.0 | 0.00 | 0.00 | 0.00 | 87 | 1016.7 |
| 20260505033737 | 53 | 270 | 0.0 | 2.0 | 0.00 | 0.00 | 0.00 | 87 | 1016.7 |
| 20260505033542 | 53 | 270 | 0.0 | 0.0 | 0.00 | 0.00 | 0.00 | 87 | 1016.6 |
| 20260505033338 | 53 | 292 | 1.0 | 2.0 | 0.00 | 0.00 | 0.00 | 87 | 1016.7 |
| 20260505033138 | 53 | 292 | 0.0 | 2.0 | 0.00 | 0.00 | 0.00 | 87 | 1016.6 |
| 20260505032937 | 53 | 292 | 2.0 | 2.0 | 0.00 | 0.00 | 0.00 | 87 | 1016.6 |
| 20260505032737 | 53 | 292 | 1.0 | 2.0 | 0.00 | 0.00 | 0.00 | 87 | 1016.6 |
| 20260505032542 | 53 | 292 | 1.0 | 2.0 | 0.00 | 0.00 | 0.00 | 87 | 1016.8 |
| 20260505032337 | 53 | 292 | 0.0 | 0.0 | 0.00 | 0.00 | 0.00 | 86 | 1016.6 |
| 20260505032137 | 53 | 292 | 0.0 | 2.0 | 0.00 | 0.00 | 0.00 | 86 | 1016.6 |
| 20260505031937 | 53 | 292 | 2.0 | 2.0 | 0.00 | 0.00 | 0.00 | 86 | 1016.7 |
| 20260505031737 | 53 | 292 | 1.0 | 2.0 | 0.00 | 0.00 | 0.00 | 86 | 1016.7 |
| 20260505031543 | 53 | 338 | 0.0 | 0.0 | 0.00 | 0.00 | 0.00 | 86 | 1016.8 |
| 20260505031337 | 53 | 338 | 0.0 | 0.0 | 0.00 | 0.00 | 0.00 | 86 | 1016.6 |
| 20260505030939 | 53 | 338 | 0.0 | 0.0 | 0.00 | 0.00 | 0.00 | 86 | 1016.6 |
| 20260505030738 | 53 | 338 | 0.0 | 0.0 | 0.00 | 0.00 | 0.00 | 86 | 1016.8 |
| 20260505030540 | 53 | 338 | 0.0 | 0.0 | 0.00 | 0.00 | 0.00 | 86 | 1016.7 |
| 20260505030337 | 53 | 338 | 0.0 | 0.0 | 0.00 | 0.00 | 0.00 | 86 | 1016.7 |
| 20260505030138 | 53 | 338 | 0.0 | 0.0 | 0.00 | 0.00 | 0.00 | 86 | 1016.9 |
| 20260505025937 | 53 | 338 | 0.0 | 0.0 | 0.00 | 0.00 | 0.00 | 86 | 1016.8 |
| 20260505025736 | 53 | 338 | 0.0 | 0.0 | 0.00 | 0.00 | 0.00 | 86 | 1016.9 |
| 20260505025543 | 53 | 338 | 0.0 | 0.0 | 0.00 | 0.00 | 0.00 | 86 | 1016.9 |
| 20260505025338 | 53 | 315 | 0.0 | 0.0 | 0.00 | 0.00 | 0.00 | 86 | 1016.8 |
| 20260505025137 | 53 | 315 | 2.0 | 2.0 | 0.00 | 0.00 | 0.00 | 86 | 1016.8 |
| 20260505024937 | 53 | 315 | 1.0 | 2.0 | 0.00 | 0.00 | 0.00 | 85 | 1016.8 |
| 20260505024737 | 53 | 315 | 0.0 | 0.0 | 0.00 | 0.00 | 0.00 | 85 | 1016.9 |
| 20260505024545 | 53 | 315 | 1.0 | 2.0 | 0.00 | 0.00 | 0.00 | 85 | 1016.9 |
| 20260505024138 | 53 | 315 | 0.0 | 0.0 | 0.00 | 0.00 | 0.00 | 85 | 1017.0 |
| 20260505023940 | 53 | 292 | 1.0 | 2.0 | 0.00 | 0.00 | 0.00 | 85 | 1016.9 |
| 20260505023737 | 54 | 292 | 1.0 | 2.0 | 0.00 | 0.00 | 0.00 | 85 | 1017.0 |
| 20260505023541 | 54 | 315 | 1.0 | 2.0 | 0.00 | 0.00 | 0.00 | 85 | 1016.9 |
| 20260505022937 | 54 | 315 | 2.0 | 2.0 | 0.00 | 0.00 | 0.00 | 86 | 1017.1 |
| 20260505022542 | 54 | 315 | 1.0 | 2.0 | 0.00 | 0.00 | 0.00 | 86 | 1017.0 |
| 20260505022337 | 54 | 315 | 0.0 | 2.0 | 0.00 | 0.00 | 0.00 | 86 | 1017.0 |
| 20260505021937 | 54 | 315 | 2.0 | 2.0 | 0.00 | 0.00 | 0.00 | 86 | 1017.2 |
| 20260505021738 | 54 | 315 | 1.0 | 2.0 | 0.00 | 0.00 | 0.00 | 86 | 1016.9 |
| 20260505021543 | 53 | 315 | 0.0 | 2.0 | 0.00 | 0.00 | 0.00 | 86 | 1017.1 |
| 20260505021137 | 53 | 315 | 0.0 | 0.0 | 0.00 | 0.00 | 0.00 | 87 | 1017.1 |
| 20260505020738 | 53 | 292 | 2.0 | 2.0 | 0.00 | 0.00 | 0.00 | 87 | 1017.1 |
| 20260505020541 | 53 | 292 | 2.0 | 2.0 | 0.00 | 0.00 | 0.00 | 87 | 1016.9 |
| 20260505020338 | 53 | 292 | 2.0 | 2.0 | 0.00 | 0.00 | 0.00 | 87 | 1017.0 |
| 20260505020138 | 53 | 270 | 2.0 | 2.0 | 0.00 | 0.00 | 0.00 | 87 | 1016.9 |
| 20260505015938 | 53 | 270 | 0.0 | 0.0 | 0.00 | 0.00 | 0.00 | 87 | 1017.1 |
| 20260505015738 | 53 | 270 | 0.0 | 0.0 | 0.00 | 0.00 | 0.00 | 87 | 1017.1 |
| 20260505015543 | 54 | 270 | 0.0 | 0.0 | 0.00 | 0.00 | 0.00 | 87 | 1017.1 |
| 20260505015338 | 54 | 292 | 0.0 | 0.0 | 0.00 | 0.00 | 0.00 | 87 | 1017.0 |
| 20260505014937 | 54 | 292 | 0.0 | 0.0 | 0.00 | 0.00 | 0.00 | 87 | 1017.1 |
| 20260505014737 | 54 | 292 | 0.0 | 0.0 | 0.00 | 0.00 | 0.00 | 87 | 1017.2 |
| 20260505014544 | 54 | 292 | 0.0 | 0.0 | 0.00 | 0.00 | 0.00 | 87 | 1017.0 |
| 20260505014138 | 53 | 292 | 0.0 | 0.0 | 0.00 | 0.00 | 0.00 | 87 | 1017.0 |
| 20260505013938 | 53 | 292 | 0.0 | 0.0 | 0.00 | 0.00 | 0.00 | 87 | 1017.0 |
| 20260505013737 | 53 | 292 | 1.0 | 2.0 | 0.00 | 0.00 | 0.00 | 87 | 1016.8 |
| 20260505013540 | 53 | 292 | 2.0 | 2.0 | 0.00 | 0.00 | 0.00 | 88 | 1016.9 |
| 20260505013337 | 53 | 292 | 1.0 | 2.0 | 0.00 | 0.00 | 0.00 | 88 | 1016.9 |
| 20260505012938 | 54 | 292 | 1.0 | 2.0 | 0.00 | 0.00 | 0.00 | 88 | 1017.0 |
| 20260505012738 | 54 | 315 | 0.0 | 2.0 | 0.00 | 0.00 | 0.00 | 88 | 1016.8 |
| 20260505012543 | 54 | 315 | 1.0 | 2.0 | 0.00 | 0.00 | 0.00 | 88 | 1016.9 |
| 20260505012337 | 53 | 315 | 1.0 | 2.0 | 0.00 | 0.00 | 0.00 | 88 | 1017.0 |
| 20260505011938 | 53 | 315 | 0.0 | 0.0 | 0.00 | 0.00 | 0.00 | 88 | 1016.7 |
| 20260505011737 | 53 | 315 | 1.0 | 2.0 | 0.00 | 0.00 | 0.00 | 88 | 1016.8 |
| 20260505011541 | 53 | 315 | 2.0 | 2.0 | 0.00 | 0.00 | 0.00 | 88 | 1016.9 |
| 20260505011337 | 53 | 315 | 1.0 | 2.0 | 0.00 | 0.00 | 0.00 | 88 | 1016.9 |
| 20260505011138 | 53 | 315 | 2.0 | 2.0 | 0.00 | 0.00 | 0.00 | 88 | 1017.0 |
| 20260505010940 | 54 | 315 | 2.0 | 2.0 | 0.00 | 0.00 | 0.00 | 88 | 1016.9 |
| 20260505010738 | 54 | 315 | 0.0 | 2.0 | 0.00 | 0.00 | 0.00 | 88 | 1016.9 |
| 20260505010540 | 54 | 292 | 1.0 | 2.0 | 0.00 | 0.00 | 0.00 | 88 | 1017.1 |
| 20260505010139 | 54 | 292 | 0.0 | 2.0 | 0.00 | 0.00 | 0.00 | 88 | 1017.1 |
| 20260505005937 | 54 | 292 | 1.0 | 2.0 | 0.00 | 0.00 | 0.00 | 88 | 1017.0 |
| 20260505005737 | 54 | 292 | 2.0 | 2.0 | 0.00 | 0.00 | 0.00 | 88 | 1017.0 |
| 20260505005339 | 53 | 292 | 2.0 | 4.0 | 0.00 | 0.00 | 0.00 | 88 | 1017.1 |
| 20260505004938 | 53 | 270 | 1.0 | 2.0 | 0.00 | 0.00 | 0.00 | 88 | 1017.2 |
| 20260505004738 | 54 | 292 | 2.0 | 2.0 | 0.00 | 0.00 | 0.00 | 88 | 1017.2 |
| 20260505004338 | 54 | 292 | 2.0 | 2.0 | 0.00 | 0.00 | 0.00 | 89 | 1016.9 |
| 20260505004138 | 54 | 292 | 2.0 | 4.0 | 0.00 | 0.00 | 0.00 | 89 | 1017.0 |
| 20260505003939 | 54 | 292 | 2.0 | 2.0 | 0.00 | 0.00 | 0.00 | 89 | 1017.1 |
| 20260505003738 | 54 | 292 | 2.0 | 2.0 | 0.00 | 0.00 | 0.00 | 89 | 1016.9 |
| 20260505003541 | 54 | 292 | 2.0 | 2.0 | 0.00 | 0.00 | 0.00 | 89 | 1016.9 |
| 20260505003138 | 54 | 315 | 2.0 | 2.0 | 0.00 | 0.00 | 0.00 | 89 | 1016.8 |
| 20260505002738 | 54 | 292 | 1.0 | 2.0 | 0.00 | 0.00 | 0.00 | 89 | 1016.9 |
| 20260505002544 | 54 | 315 | 0.0 | 2.0 | 0.00 | 0.00 | 0.00 | 89 | 1017.1 |
| 20260505002338 | 54 | 292 | 1.0 | 2.0 | 0.00 | 0.00 | 0.00 | 89 | 1016.9 |
| 20260505002138 | 54 | 292 | 1.0 | 2.0 | 0.00 | 0.00 | 0.00 | 89 | 1016.9 |
| 20260505001937 | 54 | 315 | 1.0 | 2.0 | 0.00 | 0.00 | 0.00 | 89 | 1016.9 |
| 20260505001737 | 54 | 315 | 0.0 | 2.0 | 0.00 | 0.00 | 0.00 | 89 | 1017.0 |
| 20260505001545 | 54 | 315 | 1.0 | 2.0 | 0.00 | 0.00 | 0.00 | 89 | 1017.1 |
| 20260505001138 | 54 | 292 | 1.0 | 2.0 | 0.00 | 0.00 | 0.00 | 89 | 1017.1 |
| 20260505000541 | 54 | 292 | 0.0 | 2.0 | 0.00 | 0.00 | 0.00 | 89 | 1017.0 |
| 20260505000338 | 54 | 292 | 0.0 | 2.0 | 0.00 | 0.00 | 0.00 | 89 | 1017.2 |
| 20260505000138 | 54 | 292 | 0.0 | 2.0 | 0.00 | 0.00 | 0.00 | 89 | 1017.0 |
| 20260504235938 | 54 | 292 | 0.0 | 2.0 | 0.00 | 0.00 | 0.00 | 89 | 1017.1 |
| 20260504235737 | 54 | 292 | 0.0 | 0.0 | 0.00 | 0.00 | 0.00 | 89 | 1017.2 |
| 20260504235545 | 54 | 292 | 0.0 | 0.0 | 0.00 | 0.00 | 0.00 | 89 | 1017.1 |
| 20260504235337 | 54 | 292 | 0.0 | 2.0 | 0.00 | 0.00 | 0.00 | 89 | 1017.1 |